Location: Kermapucano
(48.0667°N, 3.3000°W)
Time: 19:37:15
(UTC+00:00)

BREEZE-M DEB (TANK) - Pass Details

Date: 29 November 2020
Orbit: 410 x 14910 km, 45.9° (Epoch: 27 January)

Event Time Altitude Azimuth Distance (km) Brightness Sun altitude
Exits shadow 07:00:38 - 265° (W) 1,902 5.0 -6.6°
Reaches altitude 10° 07:01:18 10° 263° (W) 1,580 4.7 -6.5°
Maximum altitude 07:04:14 68° 179° (S) 669 3.4 -6.1°
Drops below altitude 10° 07:10:54 10° 98° (E) 3,503 8.3 -5.1°
Sets 07:16:14 0° 97° (E) 5,893 9.6 -4.3°
